Weather History for Parsons, KS

Change the Weather History Date:

Tuesday, February 26, 2013

  Actual Average Record
Temperature  
Mean Temperature 34 °F -  
Max Temperature 35 °F 53 °F 75 °F (2009)
Min Temperature 33 °F 30 °F 7 °F (1960)
Degree Days  
Heating Degree Days 31    
Moisture  
Dew Point 30 °F    
Average Humidity 86    
Maximum Humidity 92    
Minimum Humidity 81    
Precipitation  
Precipitation 0.00 in - - ()
Sea Level Pressure  
Sea Level Pressure 29.64 in    
Wind  
Wind Speed 14 mph (NNW)    
Max Wind Speed 25 mph    
Max Gust Speed 36 mph    
Visibility 3 miles    
Events Rain , Snow    
Averages and records for this station are not official NWS values.
T = Trace of Precipitation, MM = Missing Value Source: NWS Daily Summary

Daily Weather History Graph

Daily Weather History Graph

Search for Another Location

Airport:

Trip Planner

Search our weather history database for the weather conditions in past years. The results will help you decide how hot, cold, wet, or windy it might be!

Date:

Astronomy

Feb. 26, 2013 Rise Set
Actual Time 6:56 AM CST 6:13 PM CST
Civil Twilight 6:30 AM CST 6:39 PM CST
Nautical Twilight 6:00 AM CST 7:09 PM CST
Astronomical Twilight 5:30 AM CST 7:40 PM CST
Moon 7:28 PM CST (2/26) 7:02 AM CST (2/26)
Length of Visible Light 12h 08m
Length of Day
11h 16m
Full, 99% of the Moon is Illuminated
Feb 26
Full
Mar 4
Last Quarter
Mar 11
New
Mar 19
First Quarter
Mar 27
Full

Hourly Weather History & Observations

Time (CST) Temp. Windchill Dew Point Humidity Pressure Visibility Wind Dir Wind Speed Gust Speed Precip Events Conditions
12:28 AM 33.8 °F 25.8 °F 30.2 °F 87% 29.56 in 1.0 mi North 10.4 mph - 0.00 in Snow Light Snow
12:41 AM 33.8 °F 25.8 °F 30.2 °F 87% 29.56 in 1.0 mi North 10.4 mph 18.4 mph 0.00 in Snow Light Snow
12:49 AM 33.8 °F 25.8 °F 30.2 °F 87% 29.56 in 0.8 mi North 10.4 mph - 0.00 in Snow Light Snow
12:52 AM 33.1 °F 25.5 °F 30.9 °F 92% 29.57 in 1.0 mi North 9.2 mph - 0.00 in Snow Light Snow
1:03 AM 33.8 °F 26.4 °F 30.2 °F 87% 29.55 in 1.2 mi North 9.2 mph 18.4 mph 0.00 in Snow Light Snow
1:10 AM 33.8 °F 25.8 °F 30.2 °F 87% 29.55 in 1.0 mi North 10.4 mph 19.6 mph 0.00 in Snow Light Snow
1:17 AM 33.8 °F 25.8 °F 30.2 °F 87% 29.55 in 1.2 mi North 10.4 mph 18.4 mph 0.00 in Snow Light Snow
1:40 AM 33.8 °F 25.3 °F 30.2 °F 87% 29.55 in 1.0 mi North 11.5 mph 23.0 mph 0.00 in Snow Light Snow
1:52 AM 33.1 °F 24.4 °F 30.9 °F 92% 29.56 in 1.0 mi North 11.5 mph 20.7 mph 0.00 in Snow Light Snow
2:30 AM 33.8 °F 24.8 °F 30.2 °F 87% 29.54 in 0.8 mi North 12.7 mph 23.0 mph 0.00 in Snow Light Snow
2:52 AM 33.1 °F 23.0 °F 30.9 °F 92% 29.55 in 1.0 mi North 15.0 mph 23.0 mph 0.00 in Snow Light Snow
3:05 AM 33.8 °F 23.9 °F 30.2 °F 87% 29.53 in 0.8 mi North 15.0 mph - 0.00 in Snow Light Snow
3:39 AM 33.8 °F 22.8 °F 30.2 °F 87% 29.53 in 1.2 mi North 18.4 mph 27.6 mph 0.00 in Snow Light Snow
3:52 AM 33.1 °F 20.6 °F 30.9 °F 92% 29.54 in 1.2 mi North 23.0 mph 33.4 mph 0.00 in Snow Light Snow
3:58 AM 33.8 °F 22.2 °F 30.2 °F 87% 29.52 in 1.5 mi North 20.7 mph 33.4 mph 0.00 in Snow Light Snow
4:11 AM 33.8 °F 22.2 °F 30.2 °F 87% 29.52 in 1.0 mi North 20.7 mph 26.5 mph 0.00 in Snow Light Snow
4:24 AM 33.8 °F 22.5 °F 30.2 °F 87% 29.52 in 1.5 mi North 19.6 mph 29.9 mph 0.00 in Snow Light Snow
4:52 AM 34.0 °F 23.0 °F 30.9 °F 89% 29.55 in 2.5 mi North 18.4 mph 34.5 mph 0.00 in Snow Light Snow
5:07 AM 33.8 °F 21.9 °F 30.2 °F 87% 29.53 in 4.0 mi North 21.9 mph 32.2 mph 0.00 in Snow Light Snow
5:23 AM 33.8 °F 22.2 °F 30.2 °F 87% 29.53 in 2.0 mi North 20.7 mph 33.4 mph 0.00 in Snow Light Snow
5:31 AM 33.8 °F 21.0 °F 30.2 °F 87% 29.54 in 3.0 mi NNW 25.3 mph 32.2 mph 0.00 in Snow Light Snow
5:41 AM 33.8 °F 21.9 °F 30.2 °F 87% 29.54 in 2.5 mi North 21.9 mph 31.1 mph 0.00 in Snow Light Snow
5:52 AM 33.1 °F 20.3 °F 30.9 °F 92% 29.56 in 1.8 mi North 24.2 mph 33.4 mph 0.00 in Snow Light Snow
6:11 AM 33.8 °F 22.2 °F 30.2 °F 87% 29.56 in 1.2 mi NNW 20.7 mph 35.7 mph 0.00 in Snow Light Snow
6:35 AM 33.8 °F 21.9 °F 30.2 °F 87% 29.57 in 1.5 mi NNW 21.9 mph 34.5 mph 0.00 in Snow Light Snow
6:52 AM 33.1 °F 20.9 °F 30.0 °F 89% 29.58 in 1.8 mi NNW 21.9 mph 34.5 mph 0.00 in Snow Light Snow
7:04 AM 33.8 °F 21.0 °F 30.2 °F 87% 29.57 in 2.0 mi NNW 25.3 mph 33.4 mph 0.00 in Snow Light Snow
7:16 AM 33.8 °F 21.6 °F 30.2 °F 87% 29.56 in 1.5 mi North 23.0 mph 32.2 mph 0.00 in Snow Light Snow
7:52 AM 33.1 °F 20.9 °F 30.0 °F 89% 29.60 in 2.0 mi NNW 21.9 mph 29.9 mph 0.00 in   Overcast
8:18 AM 33.8 °F 22.2 °F 30.2 °F 87% 29.60 in 3.0 mi NNW 20.7 mph 28.8 mph 0.00 in Rain Light Rain
9:52 AM 34.0 °F 25.0 °F 30.0 °F 85% 29.66 in 4.0 mi NNW 12.7 mph - 0.00 in   Overcast
10:52 AM 34.0 °F 25.5 °F 30.9 °F 89% 29.69 in 4.0 mi NNW 11.5 mph 19.6 mph 0.00 in   Overcast
11:36 AM 33.8 °F 23.5 °F 30.2 °F 87% 29.69 in 2.0 mi NW 16.1 mph 24.2 mph 0.00 in Snow Light Snow
11:50 AM 33.8 °F 23.9 °F 30.2 °F 87% 29.68 in 2.5 mi NNW 15.0 mph - 0.00 in Snow Light Snow
11:52 AM 34.0 °F 25.0 °F 30.9 °F 89% 29.70 in 2.5 mi NNW 12.7 mph - 0.00 in   Overcast
12:01 PM 33.8 °F 23.9 °F 30.2 °F 87% 29.68 in 3.0 mi NNW 15.0 mph - N/A   Overcast
12:38 PM 35.6 °F 26.6 °F 30.2 °F 81% 29.70 in 5.0 mi NW 13.8 mph 23.0 mph N/A   Overcast
12:52 PM 34.0 °F 24.2 °F 30.0 °F 85% 29.72 in 4.0 mi NW 15.0 mph - N/A   Overcast
1:52 PM 35.1 °F 25.9 °F 30.0 °F 82% 29.72 in 4.0 mi NNW 13.8 mph - N/A   Haze
2:52 PM 35.1 °F 26.9 °F 30.0 °F 82% 29.73 in 4.0 mi NW 11.5 mph - N/A   Haze
3:29 PM 35.6 °F 27.1 °F 30.2 °F 81% 29.73 in 5.0 mi NW 12.7 mph - N/A   Haze
3:52 PM 35.1 °F 26.9 °F 30.0 °F 82% 29.75 in 5.0 mi NNW 11.5 mph 20.7 mph N/A   Haze
4:52 PM 35.1 °F 27.4 °F 30.0 °F 82% 29.79 in 5.0 mi WNW 10.4 mph - N/A   Haze
5:52 PM 35.1 °F 27.9 °F 30.0 °F 82% 29.82 in 5.0 mi WNW 9.2 mph - N/A   Haze
6:52 PM 35.1 °F 27.4 °F 30.0 °F 82% 29.84 in 7.0 mi NW 10.4 mph - N/A   Overcast
7:52 PM 35.1 °F 28.6 °F 30.0 °F 82% 29.86 in 7.0 mi NW 8.1 mph - N/A   Overcast
8:52 PM 35.1 °F 27.9 °F 30.0 °F 82% 29.90 in 6.0 mi WNW 9.2 mph - N/A   Haze
9:52 PM 34.0 °F 26.6 °F 28.9 °F 82% 29.93 in 6.0 mi WNW 9.2 mph - N/A   Haze
10:52 PM 34.0 °F - 28.9 °F 82% 29.89 in 6.0 mi North - - N/A   Haze
11:52 PM 34.0 °F 28.0 °F 30.0 °F 85% 29.91 in 6.0 mi NW 6.9 mph - N/A   Overcast